STARLINK-31794, 59803

Orbit data source: Space-Track

STARLINK-31794, 59803 is a payload satellite owned by SpaceX/Seattle (US) in LEO that was launched on Sat, 18 May 2024 UTC via an FALCON 9 launch vehicle from the Air Force Eastern Test Range (AFETR). Payload-class satellites include a variety of spacecraft equipped with specific instruments for various scientific and technological missions. These include communications satellites like Starlink; space stations such as the ISS; scientific satellites like the Hubble; Earth observation satellites from companies like Planet Labs, Umbra, and HawkEye 360; GPS; miniature CubeSats for education and research; and military/defense satellites.

Loading next visibility...
Identifier
59803, 2024-093X
Orbit
LEO
Country
Flag of USUS
Related business
Manufacturer
SpaceX/Seattle
Mission
Operational Commercial Communications
Bus & Motor
STARLINK V2M, Unknown motor
Mass
730 kg wet, ~700 kg dry
Launch date (UTC)
2024-05-18 (2 years ago)
Launch vehicle
FALCON 9
Launch site
Air Force Eastern Test Range (AFETR)
Object type
Payload
Rocket body
Debris
Shape & HBR
Box + 2 Pan, 17.7 m
Radar Cross Section
33.884 m², Large (>1 m²)

Expand to show TLE details & history
Last TLE update: 9 hours ago

TLE from 9 hours ago
0 STARLINK-31794
1 59803U 24093X   26073.60425285  .00002045  00000-0  83839-4 0  9999
2 59803  43.0026 181.4282 0001291 265.9908  94.0796 15.27573899103511
Epoch: 2026-03-14T14:30Z
TLE epoch observation values (Epoch: 2026-03-14T14:30:07.446Z)
Latitude
-0.00002°
Longitude
151.67411°
Altitude
482.906 km
Speed
7.626 km/s
True Right ascension
12h 05m 42s
True Declination
0° 00' 00"
Sunlit
Object was in full shadow at epoch
Visualization orbit readout
Latitude
Unknown
Longitude
Unknown
Altitude
Unknown
Speed
Unknown
Apparent Right ascension
Unknown
Apparent Declination
Unknown
Sunlit
N/A
Visualization observer readout
Local Sidereal Time
03:53:23
Azimuth
Unknown
Elevation
Unknown
Doppler factor
Unknown
Orbital elements
Apogee altitude
485.898 km
Perigee altitude
484.126 km
Semi-major axis
6,863.149 km
Eccentricity
0.00013
Inclination
43.0026°
RAAN
181.4282°
Arg. of periapsis
265.9908°
True anomaly
94.09436°
Mean anomaly
94.0796°
Eccentric anomaly
94.08698°
Mean motion
3.81732 °/min
Orbital period
94.31 mins
BSTAR
0.000083839
Loading maneuver chart data...
Computing Atmospheric mass density...
Loading historical data...
Loading historical data...
Loading historical data...
Loading historical data...
Loading historical data...
Loading historical data...
Loading historical data...

Documentation

Showing up to 5 results
|